Location: Baumgarten
(49.0970°N, 12.7493°E)
Time: 18:12:58
(UTC+00:00)

SL-08 ROCKET BODY - Pass Details

Date: 05 July 2020
Orbit: 897 x 963 km, 82.9° (Epoch: 12 August)

Event Time Altitude Azimuth Distance (km) Brightness Sun altitude
Rises 19:54:50 0° 185° (S) 3,532 7.0 -5.7°
Reaches altitude 10° 19:57:15 10° 184° (S) 2,603 6.4 -6.0°
Maximum altitude 20:03:12 84° 97° (E) 940 4.4 -6.6°
Drops below altitude 10° 20:09:18 10° 10° (N) 2,667 7.4 -7.3°
Sets 20:11:49 0° 10° (N) 3,625 8.1 -7.6°
